Find Najm-1

NORAD ID: 47947 Int'l Des: NNA 2021-022 Owner: KACST Country: SA operational
LEOCIRCULARRETROGRADESSO

リアルタイム位置

3D地球を読み込み中...

Najm-1について

説明を読み込み中...

次回通過

Passes for default location (London). Set your location on the main map for personalized predictions.

高度履歴

Loading altitude history...

軌道要素

1 47947U 21022R 26105.95774369 -.00000663 00000-0 -38001-4 0 9995
2 47947 97.3681 344.0710 0018679 31.4602 328.7741 15.08949141278622
Epoch: Apr 15, 2026 • Age: 5 hours

現在のステータス

高度 529.4 km
速度 7.61 km/s
衛星直下点 21.73°N, 79.17°E
打ち上げ日 Mar 22, 2021
運用期間 5 years
タイプ other

技術仕様

分類 Payload
質量 50.00 kg
乾燥質量 50.00 kg
総質量 50.00 kg
長さ 0.50 m
直径 0.30 m
スパン 0.50 m
形状 Box
製造者 LINA
バスタイプ Aprize
フェーズステータス In Orbit
所有者/国 KACST/SA

Most Searched